Hourly Data Report for September 11, 2013

All times are specified in Local Standard Time (LST). Add 1 hour to adjust for Daylight Saving Time where and when it is observed.

PETAWAWA AWOS 2
ONTARIO

45°57'00.000" N
77°19'00.000" W
130.10 m
6106396
71625
YWA

Download Data

Hourly Data (September 2013)
Hourly Data Report for September 11, 2013
Temp Definition
°C
Dew Point Temp Definition
°C
Rel Hum Definition
%
Wind Dir Definition
10's deg

Wind Spd Definition
km/h
Visibility Definition
km
Stn Press Definition
kPa
Hmdx Definition


Wind Chill Definition


Weather Definition


TIME
00:00 18.1 18.1 100 13 7 0.3 99.59      
01:00 17.9 17.9 100 16 4 0.3 99.64      
02:00 17.8 17.8 100   0 0.3 99.67      
03:00 17.6 17.6 100 17 4 0.3 99.66      
04:00 17.4 17.4 100   0 0.3 99.72      
05:00 17.3 17.3 100   0 0.3 99.80      
06:00 17.3 17.3 100 16 6 2.1 99.77      
07:00 17.9 17.9 100   0 8.0 99.75      
08:00 17.8 17.8 100 10 6 1.3 99.76      
09:00 18.3 18.3 100 36 4 8.0 99.81      
10:00 19.3 18.3 94 35 4 15.0 99.85      
11:00 21.1 18.9 87 29 6 15.0 99.87 28    
12:00 22.4 19.0 81 29 7 15.0 99.88 29    
13:00 22.6 18.7 79 28 9 15.0 99.87 29   Rain
14:00 23.8 19.2 75 28 9 15.0 99.83 31    
15:00 24.7 18.1 67 26 13 15.0 99.78 31    
16:00 24.5 18.3 68 20 7 15.0 99.69 31    
17:00 24.5 18.2 68   0 15.0 99.67 31    
18:00 23.8 18.3 71   0 15.0 99.69 30   Rain
19:00 19.8 19.2 96   0 15.0 99.68      
20:00 19.8 19.4 98   0 15.0 99.67      
21:00 17.7 17.5 99   0 15.0 99.70      
22:00 16.9 16.8 99   0 9.7 99.66      
23:00 16.0 16.0 100   0 0.6 99.59      

Notes on Data Quality.

Legend

  • E = Estimated
  • M = Missing
  • NA = Not Available
  • ‡ = Partner data that is not subject to review by the National Climate Archives
Date modified: